Time+07,TemperatureF,Dew PointF,Humidity,Sea Level PressureIn,VisibilityMPH,Wind Direction,Wind SpeedMPH,Gust SpeedMPH,PrecipitationIn,Events,Conditions,WindDirDegrees,DateUTC
12:00 AM,78.8,73.4,83,29.92,5.6,WNW,9.2,-,N/A,,Scattered Clouds,290,2013-03-03 17:00:00
12:30 AM,78.8,73.4,83,29.92,5.6,WNW,8.1,-,N/A,,Scattered Clouds,300,2013-03-03 17:30:00
1:00 AM,80.6,73.4,79,29.92,5.6,NW,8.1,19.6,N/A,,Scattered Clouds,310,2013-03-03 18:00:00
7:00 AM,73.4,64.4,73,29.95,6.2,North,8.1,-,N/A,,Scattered Clouds,350,2013-03-04 00:00:00
7:30 AM,75.2,64.4,69,29.98,6.2,North,8.1,-,N/A,,Scattered Clouds,350,2013-03-04 00:30:00
8:00 AM,75.2,64.4,69,29.98,6.2,North,6.9,-,N/A,,Scattered Clouds,10,2013-03-04 01:00:00
8:30 AM,77.0,64.4,65,29.98,-9999.0,NNE,9.2,-,N/A,,Clear,20,2013-03-04 01:30:00
9:00 AM,78.8,64.4,61,29.98,-9999.0,NE,11.5,-,N/A,,Clear,50,2013-03-04 02:00:00
9:30 AM,80.6,64.4,58,30.01,-9999.0,North,9.2,-,N/A,,Clear,10,2013-03-04 02:30:00
10:00 AM,82.4,64.4,54,30.01,-9999.0,NNE,6.9,-,N/A,,Clear,20,2013-03-04 03:00:00
10:30 AM,84.2,68.0,58,30.01,-9999.0,North,5.8,-,N/A,,Clear,10,2013-03-04 03:30:00
11:00 AM,84.2,66.2,55,29.98,6.2,Variable,5.8,-,N/A,,Partly Cloudy,0,2013-03-04 04:00:00
11:30 AM,87.8,66.2,49,29.95,6.2,Variable,2.3,-,N/A,,Scattered Clouds,0,2013-03-04 04:30:00
12:00 PM,87.8,66.2,49,29.95,6.2,ENE,12.7,-,N/A,,Scattered Clouds,70,2013-03-04 05:00:00
12:30 PM,89.6,66.2,46,29.92,6.2,East,9.2,-,N/A,,Scattered Clouds,80,2013-03-04 05:30:00
1:00 PM,87.8,66.2,49,29.92,6.2,SW,8.1,-,N/A,,Scattered Clouds,230,2013-03-04 06:00:00
1:30 PM,89.6,66.2,46,29.89,6.2,West,8.1,-,N/A,,Mostly Cloudy,260,2013-03-04 06:30:00
2:00 PM,86.0,66.2,51,29.89,6.2,NW,8.1,-,N/A,,Mostly Cloudy,310,2013-03-04 07:00:00
2:30 PM,86.0,64.4,48,29.89,6.2,WNW,12.7,-,N/A,,Mostly Cloudy,300,2013-03-04 07:30:00
3:00 PM,86.0,64.4,48,29.89,6.2,NNW,17.3,-,N/A,,Mostly Cloudy,330,2013-03-04 08:00:00
3:30 PM,82.4,62.6,51,29.86,6.2,NNW,17.3,-,N/A,,Mostly Cloudy,340,2013-03-04 08:30:00
4:00 PM,82.4,62.6,51,29.89,6.2,NNW,15.0,-,N/A,,Mostly Cloudy,340,2013-03-04 09:00:00
4:30 PM,80.6,64.4,58,29.89,6.2,NNW,13.8,-,N/A,,Mostly Cloudy,330,2013-03-04 09:30:00
5:00 PM,78.8,64.4,61,29.89,6.2,NNW,16.1,-,N/A,,Mostly Cloudy,330,2013-03-04 10:00:00
5:30 PM,77.0,64.4,65,29.89,6.2,NNW,13.8,-,N/A,,Mostly Cloudy,330,2013-03-04 10:30:00
6:00 PM,75.2,62.6,65,29.92,6.2,NNW,13.8,-,N/A,,Scattered Clouds,340,2013-03-04 11:00:00
6:30 PM,75.2,62.6,65,29.92,6.2,NNW,17.3,-,N/A,,Scattered Clouds,330,2013-03-04 11:30:00
7:00 PM,75.2,62.6,65,29.92,6.2,North,13.8,-,N/A,,Scattered Clouds,350,2013-03-04 12:00:00
7:30 PM,73.4,62.6,69,29.95,6.2,North,11.5,-,N/A,,Scattered Clouds,350,2013-03-04 12:30:00
8:00 PM,73.4,62.6,69,29.95,6.2,North,9.2,-,N/A,,Scattered Clouds,360,2013-03-04 13:00:00
8:30 PM,73.4,62.6,69,29.95,6.2,North,9.2,-,N/A,,Scattered Clouds,350,2013-03-04 13:30:00
9:00 PM,73.4,62.6,69,29.98,5.6,North,11.5,-,N/A,,Partly Cloudy,350,2013-03-04 14:00:00
9:30 PM,75.2,62.6,65,29.98,5.6,North,9.2,-,N/A,,Partly Cloudy,360,2013-03-04 14:30:00
10:00 PM,73.4,62.6,69,29.98,5.6,North,9.2,-,N/A,,Partly Cloudy,350,2013-03-04 15:00:00
10:30 PM,73.4,62.6,69,29.98,5.6,North,9.2,-,N/A,,Partly Cloudy,360,2013-03-04 15:30:00
11:00 PM,73.4,62.6,69,29.98,5.6,North,9.2,-,N/A,,Partly Cloudy,350,2013-03-04 16:00:00
11:30 PM,73.4,62.6,69,29.98,5.6,North,11.5,-,N/A,,Partly Cloudy,350,2013-03-04 16:30:00